User: anonymous   Login
Location: Unspecified
(0.0000°N, 0.0000°E)
Time: 01:09:11
(UTC+00:00)
Language:

Galileo 5 - Orbit

View from above orbital plane
View from above orbital plane
View from above satellite
View from above satellite

Ground track
Ground track

The orbit data is extracted from the following two-line orbital elements,

1 40128U 14050A   17294.18853836 -.00000102 +00000-0 +00000-0 0  9994
2 40128 050.3730 040.1641 1633278 067.8684 308.5863 01.85520034019708
Epoch (UTC): 21 October 2017 04:31:29
Eccentricity: 0.1633278
inclination: 50.3730°
perigee height: 17029 km
apogee height: 26168 km
right ascension of ascending node: 40.1641°
argument of perigee: 67.8684°
revolutions per day: 1.85520034
mean anomaly at epoch: 308.5863°
orbit number at epoch: 1970

The dashed part of the orbit path shows where the satellite is in the earth's shadow,  

DLR